ASA33 KSAN-KLAX

Flight info

Callsign ASA33
Flight time 0h 24m
Altitude 10000
Route CWARD2 SLI
Aircraft B739/M-SDE2E3FGHIRWXY/LB1

Departure

Time 2026-04-20 00:15
Airport San Diego International Airport (KSAN)

Arrival

Time 2026-04-20 00:40
Airport Los Angeles International Airport (KLAX)
Time Latitude Longitude Altitude Speed Heading
2026-04-19 23:52 32.73336 -117.19908 25 ft 0 kts 116°
2026-04-20 00:06 32.73340 -117.19917 28 ft 1 kts 116°
2026-04-20 00:07 32.73342 -117.19922 28 ft 0 kts 116°
2026-04-20 00:07 32.73347 -117.19935 30 ft 3 kts 116°
2026-04-20 00:07 32.73353 -117.19948 31 ft 3 kts 112°
2026-04-20 00:07 32.73356 -117.19969 30 ft 3 kts 84°
2026-04-20 00:08 32.73353 -117.19988 27 ft 0 kts 59°
2026-04-20 00:09 32.73358 -117.19982 29 ft 4 kts 40°
2026-04-20 00:09 32.73395 -117.19970 29 ft 8 kts 11°
2026-04-20 00:10 32.73471 -117.19937 27 ft 13 kts 47°
2026-04-20 00:10 32.73456 -117.19801 27 ft 22 kts 107°
2026-04-20 00:10 32.73413 -117.19623 27 ft 19 kts 105°
2026-04-20 00:10 32.73376 -117.19473 27 ft 19 kts 107°
2026-04-20 00:11 32.73339 -117.19326 25 ft 18 kts 106°
2026-04-20 00:11 32.73305 -117.19184 23 ft 18 kts 105°
2026-04-20 00:11 32.73272 -117.19047 26 ft 17 kts 106°
2026-04-20 00:11 32.73238 -117.18909 27 ft 18 kts 106°
2026-04-20 00:12 32.73201 -117.18757 27 ft 20 kts 106°
2026-04-20 00:12 32.73161 -117.18587 25 ft 23 kts 105°
2026-04-20 00:12 32.73112 -117.18390 25 ft 26 kts 106°
2026-04-20 00:12 32.73061 -117.18175 21 ft 29 kts 105°
2026-04-20 00:13 32.73004 -117.17942 19 ft 28 kts 106°
2026-04-20 00:13 32.72962 -117.17766 17 ft 12 kts 105°
2026-04-20 00:13 32.72949 -117.17706 18 ft 7 kts 95°
2026-04-20 00:13 32.72959 -117.17652 22 ft 7 kts 71°
2026-04-20 00:14 32.72987 -117.17593 22 ft 10 kts 36°
2026-04-20 00:14 32.73035 -117.17644 20 ft 12 kts 286°
2026-04-20 00:14 32.73065 -117.17770 21 ft 25 kts 287°
2026-04-20 00:14 32.73185 -117.18266 24 ft 107 kts 286°
2026-04-20 00:15 32.73465 -117.19410 101 ft 173 kts 286°
2026-04-20 00:15 32.73845 -117.20877 819 ft 194 kts 288°
2026-04-20 00:15 32.74301 -117.22427 1711 ft 212 kts 289°
2026-04-20 00:15 32.74857 -117.24115 2531 ft 215 kts 291°
2026-04-20 00:16 32.75455 -117.25631 3749 ft 194 kts 300°
2026-04-20 00:16 32.76392 -117.26738 4655 ft 192 kts 319°
2026-04-20 00:16 32.77376 -117.27915 5096 ft 209 kts 308°
2026-04-20 00:16 32.78351 -117.29368 5358 ft 240 kts 305°
2026-04-20 00:17 32.79036 -117.30470 5549 ft 261 kts 303°
2026-04-20 00:17 32.80172 -117.32310 5816 ft 291 kts 305°
2026-04-20 00:17 32.81468 -117.34307 6145 ft 316 kts 306°
2026-04-20 00:17 32.82846 -117.36406 6648 ft 325 kts 306°
2026-04-20 00:18 32.84683 -117.39209 7261 ft 324 kts 306°
2026-04-20 00:18 32.86069 -117.41337 7741 ft 326 kts 306°
2026-04-20 00:18 32.87458 -117.43481 8219 ft 328 kts 306°
2026-04-20 00:18 32.88399 -117.44937 8555 ft 329 kts 306°
2026-04-20 00:19 32.89776 -117.47071 9051 ft 330 kts 306°
2026-04-20 00:19 32.91171 -117.49238 9554 ft 330 kts 306°
2026-04-20 00:19 32.92576 -117.51424 9960 ft 335 kts 306°
2026-04-20 00:19 32.93995 -117.53634 9961 ft 336 kts 306°
2026-04-20 00:20 32.95411 -117.55840 9977 ft 334 kts 306°
2026-04-20 00:20 32.96823 -117.58040 9980 ft 335 kts 306°
2026-04-20 00:20 32.98237 -117.60246 9978 ft 335 kts 306°
2026-04-20 00:20 32.99652 -117.62454 9985 ft 336 kts 306°
2026-04-20 00:21 33.01049 -117.64636 9971 ft 336 kts 306°
2026-04-20 00:21 33.02468 -117.66854 9974 ft 336 kts 306°
2026-04-20 00:21 33.03887 -117.69072 9964 ft 336 kts 306°
2026-04-20 00:21 33.05303 -117.71288 9959 ft 336 kts 306°
2026-04-20 00:22 33.06755 -117.73456 9954 ft 335 kts 312°
2026-04-20 00:22 33.08471 -117.75343 9979 ft 337 kts 319°
2026-04-20 00:22 33.10292 -117.77106 9974 ft 338 kts 320°
2026-04-20 00:22 33.12124 -117.78866 9972 ft 338 kts 320°
2026-04-20 00:23 33.13937 -117.80653 9959 ft 338 kts 319°
2026-04-20 00:23 33.15735 -117.82466 9970 ft 338 kts 318°
2026-04-20 00:23 33.17500 -117.84260 9965 ft 338 kts 318°
2026-04-20 00:23 33.19358 -117.85973 9947 ft 339 kts 330°
2026-04-20 00:24 33.21594 -117.86827 9990 ft 339 kts 349°
2026-04-20 00:24 33.23923 -117.87355 9971 ft 341 kts 348°
2026-04-20 00:24 33.26241 -117.87910 9954 ft 340 kts 348°
2026-04-20 00:24 33.28553 -117.88476 9957 ft 339 kts 348°
2026-04-20 00:25 33.30863 -117.89048 9970 ft 340 kts 348°
2026-04-20 00:25 33.33182 -117.89625 9966 ft 340 kts 348°
2026-04-20 00:25 33.35500 -117.90202 9959 ft 340 kts 348°
2026-04-20 00:25 33.37818 -117.90781 9924 ft 341 kts 348°
2026-04-20 00:26 33.40131 -117.91450 9645 ft 342 kts 343°
2026-04-20 00:26 33.42407 -117.92269 9394 ft 340 kts 342°
2026-04-20 00:26 33.44654 -117.93120 9128 ft 337 kts 342°
2026-04-20 00:26 33.46882 -117.93963 8876 ft 334 kts 342°
2026-04-20 00:27 33.49066 -117.94778 8632 ft 333 kts 342°
2026-04-20 00:27 33.51273 -117.95593 8387 ft 332 kts 342°
2026-04-20 00:27 33.53482 -117.96403 8140 ft 332 kts 343°
2026-04-20 00:27 33.55688 -117.97208 7898 ft 331 kts 343°
2026-04-20 00:28 33.57885 -117.98008 7652 ft 330 kts 343°
2026-04-20 00:28 33.60074 -117.98805 7406 ft 328 kts 343°
2026-04-20 00:28 33.62256 -117.99601 7168 ft 327 kts 343°
2026-04-20 00:28 33.64427 -118.00393 7019 ft 326 kts 343°
2026-04-20 00:29 33.66564 -118.01173 6967 ft 314 kts 343°
2026-04-20 00:29 33.68604 -118.01918 6913 ft 299 kts 343°
2026-04-20 00:29 33.70546 -118.02627 6903 ft 284 kts 343°
2026-04-20 00:29 33.72389 -118.03301 6906 ft 270 kts 343°
2026-04-20 00:30 33.74116 -118.03933 6904 ft 256 kts 343°
2026-04-20 00:30 33.75770 -118.04538 6908 ft 242 kts 343°
2026-04-20 00:30 33.77332 -118.05113 6905 ft 228 kts 341°
2026-04-20 00:30 33.78680 -118.06092 6683 ft 234 kts 308°
2026-04-20 00:31 33.79510 -118.07761 6307 ft 229 kts 295°
2026-04-20 00:31 33.80270 -118.09417 5960 ft 222 kts 298°
2026-04-20 00:31 33.81031 -118.11000 5958 ft 214 kts 298°
2026-04-20 00:31 33.81757 -118.12503 5932 ft 203 kts 298°
2026-04-20 00:32 33.82473 -118.13986 5622 ft 209 kts 298°
2026-04-20 00:32 33.83347 -118.15379 5231 ft 210 kts 322°
2026-04-20 00:32 33.84629 -118.16076 4897 ft 203 kts 343°
2026-04-20 00:32 33.85970 -118.16606 4544 ft 202 kts 341°
2026-04-20 00:33 33.87295 -118.17159 4172 ft 202 kts 341°
2026-04-20 00:33 33.88613 -118.17710 3794 ft 199 kts 341°
2026-04-20 00:33 33.89909 -118.18256 3420 ft 195 kts 341°
2026-04-20 00:33 33.91182 -118.18789 3060 ft 192 kts 341°
2026-04-20 00:34 33.92402 -118.19293 2940 ft 180 kts 341°
2026-04-20 00:34 33.93588 -118.19780 2993 ft 179 kts 341°
2026-04-20 00:34 33.94767 -118.20264 2977 ft 178 kts 341°
2026-04-20 00:34 33.95888 -118.20883 2949 ft 179 kts 318°
2026-04-20 00:35 33.96515 -118.22086 2992 ft 166 kts 288°
2026-04-20 00:35 33.96949 -118.23340 2973 ft 164 kts 291°
2026-04-20 00:35 33.97299 -118.24579 2947 ft 150 kts 269°
2026-04-20 00:35 33.97143 -118.25724 2824 ft 138 kts 256°
2026-04-20 00:36 33.97004 -118.26926 2527 ft 149 kts 253°
2026-04-20 00:36 33.96758 -118.28057 2219 ft 137 kts 253°
2026-04-20 00:36 33.96456 -118.29093 2023 ft 122 kts 243°
2026-04-20 00:36 33.96129 -118.30102 1716 ft 150 kts 252°
2026-04-20 00:37 33.95993 -118.31287 1714 ft 136 kts 267°
2026-04-20 00:37 33.96029 -118.32384 1354 ft 130 kts 271°
2026-04-20 00:37 33.95998 -118.33483 1181 ft 128 kts 261°
2026-04-20 00:37 33.95824 -118.34539 1041 ft 130 kts 256°
2026-04-20 00:38 33.95663 -118.35587 833 ft 130 kts 262°
2026-04-20 00:38 33.95565 -118.36635 687 ft 127 kts 263°
2026-04-20 00:38 33.95475 -118.37704 573 ft 128 kts 263°
2026-04-20 00:38 33.95372 -118.38736 401 ft 122 kts 261°
2026-04-20 00:39 33.95253 -118.39764 263 ft 126 kts 262°
2026-04-20 00:39 33.95155 -118.40793 126 ft 113 kts 262°
2026-04-20 00:39 33.95039 -118.41592 125 ft 84 kts 259°
2026-04-20 00:39 33.94990 -118.42182 122 ft 56 kts 269°
2026-04-20 00:40 33.94951 -118.42504 125 ft 31 kts 249°
2026-04-20 00:40 33.94866 -118.42661 123 ft 12 kts 228°
2026-04-20 00:40 33.94849 -118.42682 124 ft 0 kts 225°
2026-04-20 00:40 33.94838 -118.42695 124 ft 8 kts 221°
2026-04-20 00:41 33.94753 -118.42761 124 ft 20 kts 203°
2026-04-20 00:41 33.94643 -118.42751 124 ft 16 kts 122°
2026-04-20 00:41 33.94643 -118.42617 125 ft 16 kts 87°
2026-04-20 00:41 33.94650 -118.42487 125 ft 15 kts 86°
2026-04-20 00:42 33.94670 -118.42365 125 ft 15 kts 80°
2026-04-20 00:42 33.94682 -118.42247 125 ft 14 kts 83°
2026-04-20 00:42 33.94694 -118.42134 125 ft 13 kts 83°
2026-04-20 00:42 33.94705 -118.42025 123 ft 13 kts 83°
2026-04-20 00:43 33.94716 -118.41918 124 ft 13 kts 83°
2026-04-20 00:43 33.94728 -118.41801 123 ft 15 kts 83°
2026-04-20 00:43 33.94740 -118.41677 125 ft 16 kts 83°
2026-04-20 00:43 33.94755 -118.41543 125 ft 17 kts 83°
2026-04-20 00:44 33.94776 -118.41403 123 ft 17 kts 71°
2026-04-20 00:44 33.94797 -118.41264 125 ft 17 kts 84°
2026-04-20 00:44 33.94810 -118.41129 125 ft 16 kts 83°
2026-04-20 00:44 33.94824 -118.40999 125 ft 15 kts 82°
2026-04-20 00:45 33.94837 -118.40875 125 ft 15 kts 84°
2026-04-20 00:45 33.94849 -118.40754 121 ft 15 kts 82°
2026-04-20 00:45 33.94862 -118.40631 121 ft 12 kts 87°
2026-04-20 00:45 33.94813 -118.40594 122 ft 8 kts 178°
2026-04-20 00:46 33.94760 -118.40583 123 ft 8 kts 173°
2026-04-20 00:46 33.94707 -118.40575 123 ft 8 kts 173°
2026-04-20 00:46 33.94650 -118.40566 123 ft 9 kts 172°
2026-04-20 00:46 33.94584 -118.40543 124 ft 11 kts 136°
2026-04-20 00:47 33.94577 -118.40480 123 ft 0 kts 84°